WZZ4997 UKLL-UKDD

Flight info

Callsign WZZ4997
Flight time 1h 43m
Altitude 35000
Route GORKU L984 OSLAN
Aircraft A320/M-SDE3FGHIRWY/LB1

Departure

Time 2026-04-20 19:45
Airport Lviv International Airport (UKLL)

Arrival

Time 2026-04-20 21:28
Airport Dnipro International Airport (UKDD)
Time Latitude Longitude Altitude Speed Heading
2026-04-20 19:25 49.81320 23.95837 1069 ft 0 kts 45°
2026-04-20 19:37 49.81312 23.95825 1065 ft 4 kts 45°
2026-04-20 19:37 49.81293 23.95794 1068 ft 4 kts 46°
2026-04-20 19:37 49.81275 23.95766 1072 ft 3 kts 38°
2026-04-20 19:38 49.81264 23.95756 1071 ft 2 kts 353°
2026-04-20 19:38 49.81253 23.95762 1068 ft 2 kts 318°
2026-04-20 19:38 49.81248 23.95770 1067 ft 0 kts 315°
2026-04-20 19:40 49.81251 23.95765 1067 ft 2 kts 316°
2026-04-20 19:41 49.81265 23.95744 1069 ft 4 kts 315°
2026-04-20 19:41 49.81281 23.95701 1068 ft 6 kts 288°
2026-04-20 19:41 49.81295 23.95629 1067 ft 10 kts 297°
2026-04-20 19:41 49.81360 23.95530 1066 ft 17 kts 324°
2026-04-20 19:42 49.81477 23.95429 1066 ft 21 kts 314°
2026-04-20 19:42 49.81588 23.95261 1066 ft 23 kts 316°
2026-04-20 19:42 49.81709 23.95079 1066 ft 25 kts 315°
2026-04-20 19:42 49.81839 23.94881 1066 ft 27 kts 315°
2026-04-20 19:43 49.81946 23.94722 1066 ft 18 kts 315°
2026-04-20 19:43 49.82031 23.94578 1066 ft 17 kts 297°
2026-04-20 19:43 49.82039 23.94415 1065 ft 14 kts 252°
2026-04-20 19:43 49.81957 23.94368 1065 ft 15 kts 151°
2026-04-20 19:44 49.81935 23.94397 1066 ft 0 kts 135°
2026-04-20 19:44 49.81890 23.94465 1067 ft 34 kts 134°
2026-04-20 19:44 49.81561 23.94958 1065 ft 95 kts 136°
2026-04-20 19:44 49.80965 23.95850 1064 ft 142 kts 136°
2026-04-20 19:45 49.80186 23.97019 1275 ft 161 kts 133°
2026-04-20 19:45 49.79388 23.98226 1903 ft 159 kts 131°
2026-04-20 19:45 49.78602 23.99416 2536 ft 157 kts 130°
2026-04-20 19:45 49.77809 24.00612 3059 ft 163 kts 131°
2026-04-20 19:46 49.76972 24.01879 3474 ft 174 kts 131°
2026-04-20 19:46 49.76072 24.03235 3892 ft 187 kts 131°
2026-04-20 19:46 49.75092 24.04719 4213 ft 208 kts 131°
2026-04-20 19:46 49.74013 24.06347 4685 ft 225 kts 132°
2026-04-20 19:47 49.73039 24.08293 5218 ft 235 kts 108°
2026-04-20 19:47 49.72789 24.10837 5770 ft 248 kts 94°
2026-04-20 19:47 49.72608 24.13536 6352 ft 261 kts 97°
2026-04-20 19:47 49.72351 24.16332 7145 ft 263 kts 98°
2026-04-20 19:48 49.72042 24.19145 7944 ft 267 kts 99°
2026-04-20 19:48 49.71692 24.22039 8662 ft 274 kts 99°
2026-04-20 19:48 49.71325 24.24926 9333 ft 281 kts 99°
2026-04-20 19:48 49.70936 24.27931 10005 ft 289 kts 99°
2026-04-20 19:49 49.70529 24.31067 10499 ft 301 kts 100°
2026-04-20 19:49 49.70108 24.34328 10839 ft 318 kts 100°
2026-04-20 19:49 49.69673 24.37717 11162 ft 333 kts 100°
2026-04-20 19:49 49.69218 24.41280 11656 ft 342 kts 100°
2026-04-20 19:50 49.68746 24.44957 12309 ft 346 kts 101°
2026-04-20 19:50 49.68271 24.48619 12934 ft 350 kts 101°
2026-04-20 19:50 49.67792 24.52293 13556 ft 355 kts 101°
2026-04-20 19:50 49.67303 24.56059 14133 ft 360 kts 101°
2026-04-20 19:51 49.66808 24.59869 14707 ft 363 kts 101°
2026-04-20 19:51 49.66309 24.63703 15290 ft 366 kts 101°
2026-04-20 19:51 49.65804 24.67563 15872 ft 369 kts 101°
2026-04-20 19:51 49.65295 24.71454 16439 ft 371 kts 101°
2026-04-20 19:52 49.64778 24.75371 17019 ft 374 kts 101°
2026-04-20 19:52 49.64255 24.79325 17604 ft 377 kts 100°
2026-04-20 19:52 49.63730 24.83300 18197 ft 379 kts 100°
2026-04-20 19:52 49.63200 24.87302 18728 ft 382 kts 101°
2026-04-20 19:53 49.62663 24.91338 19240 ft 385 kts 101°
2026-04-20 19:53 49.62120 24.95397 19759 ft 388 kts 101°
2026-04-20 19:53 49.61568 24.99494 20291 ft 391 kts 101°
2026-04-20 19:53 49.61009 25.03618 20791 ft 394 kts 102°
2026-04-20 19:54 49.60448 25.07773 21289 ft 397 kts 102°
2026-04-20 19:54 49.59850 25.12006 21789 ft 401 kts 103°
2026-04-20 19:54 49.59223 25.16205 22260 ft 404 kts 103°
2026-04-20 19:54 49.58571 25.20434 22736 ft 407 kts 104°
2026-04-20 19:55 49.57905 25.24683 23207 ft 410 kts 104°
2026-04-20 19:55 49.57234 25.28964 23668 ft 413 kts 104°
2026-04-20 19:55 49.56562 25.33282 24052 ft 416 kts 104°
2026-04-20 19:55 49.55890 25.37630 24445 ft 418 kts 104°
2026-04-20 19:56 49.55448 25.40517 24709 ft 420 kts 104°
2026-04-20 19:56 49.54553 25.46388 25188 ft 423 kts 104°
2026-04-20 19:56 49.53883 25.50752 25556 ft 425 kts 104°
2026-04-20 19:56 49.53186 25.55251 25922 ft 427 kts 104°
2026-04-20 19:57 49.52492 25.59710 26286 ft 430 kts 104°
2026-04-20 19:57 49.51792 25.64195 26626 ft 432 kts 104°
2026-04-20 19:57 49.51087 25.68703 26959 ft 435 kts 104°
2026-04-20 19:57 49.50377 25.73231 27291 ft 437 kts 104°
2026-04-20 19:58 49.49658 25.77797 27621 ft 439 kts 104°
2026-04-20 19:58 49.48943 25.82315 27940 ft 441 kts 104°
2026-04-20 19:58 49.48213 25.86918 28261 ft 444 kts 104°
2026-04-20 19:58 49.47481 25.91539 28582 ft 446 kts 104°
2026-04-20 19:59 49.46743 25.96173 28899 ft 448 kts 104°
2026-04-20 19:59 49.45998 26.00851 29215 ft 451 kts 104°
2026-04-20 19:59 49.45250 26.05544 29523 ft 453 kts 104°
2026-04-20 19:59 49.44495 26.10276 29824 ft 455 kts 104°
2026-04-20 20:00 49.43738 26.15009 30127 ft 458 kts 104°
2026-04-20 20:00 49.42975 26.19769 30374 ft 460 kts 104°
2026-04-20 20:00 49.42204 26.24541 30650 ft 461 kts 105°
2026-04-20 20:00 49.41429 26.29314 31003 ft 461 kts 105°
2026-04-20 20:01 49.40647 26.34101 31346 ft 461 kts 105°
2026-04-20 20:01 49.39866 26.38869 31671 ft 461 kts 105°
2026-04-20 20:01 49.39080 26.43647 32003 ft 461 kts 104°
2026-04-20 20:01 49.38297 26.48412 32337 ft 461 kts 104°
2026-04-20 20:02 49.37511 26.53188 32678 ft 461 kts 104°
2026-04-20 20:02 49.36724 26.57962 33004 ft 462 kts 104°
2026-04-20 20:02 49.35935 26.62731 33338 ft 462 kts 104°
2026-04-20 20:02 49.35141 26.67512 33671 ft 462 kts 104°
2026-04-20 20:03 49.34345 26.72295 33999 ft 462 kts 104°
2026-04-20 20:03 49.33544 26.77074 34271 ft 463 kts 105°
2026-04-20 20:03 49.32739 26.81848 34525 ft 463 kts 105°
2026-04-20 20:03 49.31933 26.86624 34785 ft 462 kts 105°
2026-04-20 20:04 49.31127 26.91402 35007 ft 463 kts 105°
2026-04-20 20:04 49.29514 27.00990 35070 ft 464 kts 105°
2026-04-20 20:05 49.28163 27.08950 35069 ft 464 kts 105°
2026-04-20 20:05 49.26525 27.18517 35063 ft 465 kts 105°
2026-04-20 20:06 49.24879 27.28082 35061 ft 465 kts 105°
2026-04-20 20:06 49.23227 27.37661 35060 ft 465 kts 105°
2026-04-20 20:07 49.21573 27.47220 35058 ft 465 kts 105°
2026-04-20 20:07 49.19897 27.56769 35052 ft 465 kts 105°
2026-04-20 20:08 49.18216 27.66336 35054 ft 465 kts 103°
2026-04-20 20:08 49.17018 27.76059 35052 ft 466 kts 100°
2026-04-20 20:09 49.15957 27.85826 35054 ft 466 kts 99°
2026-04-20 20:09 49.14896 27.95595 35053 ft 466 kts 100°
2026-04-20 20:10 49.13800 28.05357 35051 ft 466 kts 100°
2026-04-20 20:10 49.12687 28.15113 35050 ft 467 kts 100°
2026-04-20 20:11 49.11560 28.24872 35051 ft 467 kts 100°
2026-04-20 20:11 49.10421 28.34624 35055 ft 467 kts 101°
2026-04-20 20:12 49.09281 28.44381 35062 ft 467 kts 101°
2026-04-20 20:12 49.08137 28.54130 35062 ft 467 kts 101°
2026-04-20 20:13 49.06390 28.68752 35059 ft 468 kts 101°
2026-04-20 20:13 49.05225 28.78483 35050 ft 468 kts 101°
2026-04-20 20:14 49.04044 28.88269 35053 ft 468 kts 101°
2026-04-20 20:14 49.02859 28.98031 35049 ft 468 kts 101°
2026-04-20 20:15 49.01665 29.07791 35044 ft 469 kts 101°
2026-04-20 20:15 49.00451 29.17555 35048 ft 469 kts 102°
2026-04-20 20:16 48.99231 29.27323 35046 ft 469 kts 101°
2026-04-20 20:16 48.98009 29.37087 35038 ft 470 kts 102°
2026-04-20 20:17 48.96775 29.46871 35034 ft 470 kts 102°
2026-04-20 20:17 48.95530 29.56639 35029 ft 470 kts 102°
2026-04-20 20:18 48.94275 29.66431 35025 ft 471 kts 102°
2026-04-20 20:18 48.93022 29.76202 35019 ft 471 kts 102°
2026-04-20 20:19 48.91750 29.85986 35015 ft 472 kts 102°
2026-04-20 20:19 48.90465 29.95767 35017 ft 472 kts 102°
2026-04-20 20:20 48.89169 30.05564 35015 ft 473 kts 102°
2026-04-20 20:20 48.87869 30.15359 35023 ft 473 kts 102°
2026-04-20 20:21 48.86562 30.25147 35028 ft 473 kts 102°
2026-04-20 20:21 48.85245 30.34945 35029 ft 473 kts 102°
2026-04-20 20:22 48.83919 30.44741 35027 ft 473 kts 103°
2026-04-20 20:22 48.82585 30.54546 35025 ft 473 kts 103°
2026-04-20 20:23 48.81246 30.64278 35015 ft 474 kts 103°
2026-04-20 20:23 48.79896 30.74055 35009 ft 474 kts 103°
2026-04-20 20:24 48.78539 30.83834 35006 ft 474 kts 103°
2026-04-20 20:24 48.77170 30.93611 35003 ft 474 kts 103°
2026-04-20 20:25 48.75791 31.03390 34996 ft 474 kts 103°
2026-04-20 20:25 48.74403 31.13154 35000 ft 475 kts 103°
2026-04-20 20:26 48.73005 31.22934 34996 ft 475 kts 103°
2026-04-20 20:26 48.71599 31.32712 34991 ft 475 kts 103°
2026-04-20 20:27 48.70186 31.42496 34992 ft 475 kts 103°
2026-04-20 20:27 48.68760 31.52281 34992 ft 476 kts 104°
2026-04-20 20:28 48.67326 31.62052 34990 ft 476 kts 104°
2026-04-20 20:28 48.65881 31.71830 34992 ft 476 kts 104°
2026-04-20 20:29 48.64430 31.81605 34993 ft 477 kts 104°
2026-04-20 20:29 48.62971 31.91382 34815 ft 477 kts 104°
2026-04-20 20:30 48.62233 31.96300 34108 ft 481 kts 104°
2026-04-20 20:30 48.61493 32.01219 33542 ft 478 kts 104°
2026-04-20 20:30 48.60761 32.06083 33027 ft 474 kts 105°
2026-04-20 20:30 48.60033 32.10916 32504 ft 470 kts 105°
2026-04-20 20:31 48.59309 32.15715 31989 ft 466 kts 105°
2026-04-20 20:31 48.58587 32.20473 31482 ft 463 kts 106°
2026-04-20 20:31 48.57862 32.25212 30981 ft 461 kts 107°
2026-04-20 20:31 48.57140 32.29908 30498 ft 458 kts 107°
2026-04-20 20:32 48.56418 32.34582 29992 ft 456 kts 107°
2026-04-20 20:32 48.55700 32.39219 29489 ft 452 kts 107°
2026-04-20 20:32 48.54986 32.43830 29027 ft 448 kts 107°
2026-04-20 20:32 48.54278 32.48385 28579 ft 445 kts 107°
2026-04-20 20:33 48.53571 32.52912 28127 ft 441 kts 107°
2026-04-20 20:33 48.52870 32.57398 27726 ft 438 kts 107°
2026-04-20 20:33 48.52177 32.61861 27318 ft 436 kts 106°
2026-04-20 20:33 48.51530 32.66313 26900 ft 434 kts 105°
2026-04-20 20:34 48.50924 32.70753 26483 ft 432 kts 104°
2026-04-20 20:34 48.50333 32.75199 26065 ft 430 kts 104°
2026-04-20 20:34 48.49748 32.79610 25633 ft 429 kts 104°
2026-04-20 20:34 48.49156 32.84015 25198 ft 427 kts 104°
2026-04-20 20:35 48.48558 32.88387 24750 ft 426 kts 104°
2026-04-20 20:35 48.47949 32.92757 24305 ft 425 kts 104°
2026-04-20 20:35 48.47337 32.97106 23850 ft 424 kts 104°
2026-04-20 20:35 48.46783 33.01472 23357 ft 424 kts 101°
2026-04-20 20:36 48.46358 33.05861 22882 ft 422 kts 98°
2026-04-20 20:36 48.46015 33.10303 22414 ft 419 kts 97°
2026-04-20 20:36 48.45713 33.14653 21950 ft 416 kts 97°
2026-04-20 20:36 48.45409 33.18967 21489 ft 413 kts 97°
2026-04-20 20:37 48.45086 33.23259 21028 ft 410 kts 98°
2026-04-20 20:37 48.44748 33.27454 20576 ft 408 kts 98°
2026-04-20 20:37 48.44509 33.30312 20267 ft 406 kts 98°
2026-04-20 20:37 48.44149 33.34506 19807 ft 403 kts 99°
2026-04-20 20:38 48.43784 33.38685 19347 ft 401 kts 99°
2026-04-20 20:38 48.43423 33.42826 18959 ft 396 kts 99°
2026-04-20 20:38 48.43068 33.46926 18441 ft 394 kts 98°
2026-04-20 20:38 48.42716 33.50989 17968 ft 389 kts 99°
2026-04-20 20:39 48.42367 33.54994 17496 ft 383 kts 99°
2026-04-20 20:39 48.42025 33.58940 17059 ft 377 kts 99°
2026-04-20 20:39 48.41686 33.62824 16625 ft 371 kts 99°
2026-04-20 20:39 48.41350 33.66645 16196 ft 366 kts 99°
2026-04-20 20:40 48.41015 33.70421 15775 ft 361 kts 99°
2026-04-20 20:40 48.40685 33.74143 15355 ft 357 kts 99°
2026-04-20 20:40 48.40359 33.77815 14944 ft 353 kts 99°
2026-04-20 20:40 48.40035 33.81468 14529 ft 349 kts 99°
2026-04-20 20:41 48.39715 33.85065 14121 ft 346 kts 99°
2026-04-20 20:41 48.39397 33.88640 13703 ft 343 kts 99°
2026-04-20 20:41 48.39082 33.92182 13268 ft 339 kts 99°
2026-04-20 20:41 48.38769 33.95689 12873 ft 335 kts 100°
2026-04-20 20:42 48.38459 33.99114 12475 ft 331 kts 100°
2026-04-20 20:42 48.38147 34.02519 12080 ft 326 kts 100°
2026-04-20 20:42 48.37836 34.05893 11688 ft 322 kts 100°
2026-04-20 20:42 48.37529 34.09214 11308 ft 319 kts 101°
2026-04-20 20:43 48.37223 34.12498 10917 ft 315 kts 101°
2026-04-20 20:43 48.36922 34.15737 10534 ft 312 kts 101°
2026-04-20 20:43 48.36623 34.18965 10157 ft 309 kts 101°
2026-04-20 20:43 48.36328 34.22136 9766 ft 306 kts 101°
2026-04-20 20:44 48.36034 34.25297 9377 ft 302 kts 101°
2026-04-20 20:44 48.35808 34.28410 9001 ft 299 kts 93°
2026-04-20 20:44 48.35813 34.31519 8633 ft 295 kts 92°
2026-04-20 20:44 48.35814 34.34584 8252 ft 292 kts 92°
2026-04-20 20:45 48.35810 34.37618 7885 ft 288 kts 92°
2026-04-20 20:45 48.35807 34.40608 7526 ft 285 kts 92°
2026-04-20 20:45 48.35803 34.43576 7175 ft 281 kts 92°
2026-04-20 20:45 48.35797 34.46500 6816 ft 278 kts 92°
2026-04-20 20:46 48.35791 34.49386 6470 ft 275 kts 92°
2026-04-20 20:46 48.35785 34.52250 6108 ft 271 kts 92°
2026-04-20 20:46 48.35780 34.55062 5764 ft 267 kts 92°
2026-04-20 20:46 48.35774 34.57835 5423 ft 263 kts 92°
2026-04-20 20:47 48.35766 34.60569 5143 ft 257 kts 92°
2026-04-20 20:47 48.35760 34.63191 5016 ft 245 kts 92°
2026-04-20 20:47 48.35755 34.65699 4814 ft 236 kts 92°
2026-04-20 20:47 48.35749 34.68129 4648 ft 230 kts 92°
2026-04-20 20:48 48.35744 34.70539 4425 ft 230 kts 91°
2026-04-20 20:48 48.35739 34.72931 4149 ft 227 kts 91°
2026-04-20 20:48 48.35734 34.75296 3866 ft 225 kts 91°
2026-04-20 20:48 48.35727 34.77642 3583 ft 224 kts 91°
2026-04-20 20:49 48.35719 34.79973 3300 ft 222 kts 91°
2026-04-20 20:49 48.35712 34.82266 3015 ft 217 kts 90°
2026-04-20 20:49 48.35705 34.84517 2736 ft 213 kts 90°
2026-04-20 20:49 48.35699 34.86723 2531 ft 207 kts 90°
2026-04-20 20:50 48.35696 34.88818 2483 ft 192 kts 89°
2026-04-20 20:50 48.35699 34.90733 2515 ft 174 kts 89°
2026-04-20 20:50 48.35703 34.92466 2486 ft 155 kts 89°
2026-04-20 20:50 48.35706 34.93961 2476 ft 140 kts 89°
2026-04-20 20:51 48.35711 34.95414 2213 ft 138 kts 88°
2026-04-20 20:51 48.35714 34.96858 1989 ft 138 kts 88°
2026-04-20 20:51 48.35717 34.98292 1804 ft 138 kts 88°
2026-04-20 20:51 48.35719 34.99722 1615 ft 136 kts 88°
2026-04-20 20:52 48.35721 35.01153 1429 ft 137 kts 88°
2026-04-20 20:52 48.35724 35.02583 1212 ft 136 kts 88°
2026-04-20 20:52 48.35725 35.04014 993 ft 136 kts 88°
2026-04-20 20:52 48.35727 35.05433 821 ft 136 kts 89°
2026-04-20 20:53 48.35724 35.06842 729 ft 139 kts 87°
2026-04-20 20:53 48.35724 35.08309 729 ft 144 kts 90°
2026-04-20 20:53 48.35727 35.09831 1432 ft 146 kts 88°
2026-04-20 20:53 48.35740 35.11342 2190 ft 143 kts 88°
2026-04-20 20:54 48.35754 35.12902 2452 ft 163 kts 88°
2026-04-20 20:54 48.35781 35.14768 2480 ft 193 kts 87°
2026-04-20 20:54 48.35814 35.16886 2449 ft 205 kts 88°
2026-04-20 20:54 48.35849 35.19032 2476 ft 206 kts 88°
2026-04-20 20:55 48.35883 35.21190 2481 ft 206 kts 88°
2026-04-20 20:55 48.35915 35.23337 2483 ft 206 kts 90°
2026-04-20 20:55 48.35531 35.25387 2487 ft 208 kts 124°
2026-04-20 20:55 48.34403 35.26718 2487 ft 212 kts 160°
2026-04-20 20:56 48.32902 35.26810 2492 ft 235 kts 195°
2026-04-20 20:56 48.31385 35.25507 2484 ft 261 kts 225°
2026-04-20 20:56 48.30449 35.23183 2483 ft 264 kts 255°
2026-04-20 20:56 48.30208 35.20457 2482 ft 264 kts 267°
2026-04-20 20:57 48.30132 35.17703 2488 ft 263 kts 268°
2026-04-20 20:57 48.30073 35.14940 2483 ft 263 kts 269°
2026-04-20 20:57 48.30021 35.12183 2483 ft 263 kts 269°
2026-04-20 20:57 48.29973 35.09470 2485 ft 265 kts 269°
2026-04-20 20:58 48.29924 35.06681 2486 ft 264 kts 269°
2026-04-20 20:58 48.29873 35.03929 2489 ft 264 kts 269°
2026-04-20 20:58 48.29822 35.01215 2482 ft 262 kts 269°
2026-04-20 20:58 48.29771 34.98435 2482 ft 264 kts 269°
2026-04-20 20:59 48.29721 34.95710 2482 ft 264 kts 269°
2026-04-20 20:59 48.29667 34.92917 2483 ft 266 kts 269°
2026-04-20 20:59 48.29615 34.90148 2482 ft 266 kts 268°
2026-04-20 20:59 48.29568 34.87387 2484 ft 264 kts 268°
2026-04-20 21:00 48.29708 34.84657 2477 ft 260 kts 290°
2026-04-20 21:00 48.30712 34.82586 2482 ft 239 kts 329°
2026-04-20 21:00 48.32201 34.81992 2482 ft 215 kts 11°
2026-04-20 21:00 48.33496 34.82805 2490 ft 194 kts 32°
2026-04-20 21:01 48.34493 34.84001 2490 ft 175 kts 62°
2026-04-20 21:01 48.34846 34.85602 2496 ft 149 kts 71°
2026-04-20 21:01 48.35280 34.86892 2510 ft 138 kts 62°
2026-04-20 21:01 48.35683 34.88196 2491 ft 138 kts 72°
2026-04-20 21:02 48.35841 34.89623 2487 ft 138 kts 90°
2026-04-20 21:02 48.35776 34.91068 2487 ft 139 kts 92°
2026-04-20 21:02 48.35742 34.92518 2414 ft 138 kts 89°
2026-04-20 21:02 48.35727 34.93961 2283 ft 138 kts 89°
2026-04-20 21:03 48.35721 34.95400 2127 ft 137 kts 89°
2026-04-20 21:03 48.35719 34.96832 1957 ft 136 kts 88°
2026-04-20 21:03 48.35719 34.98259 1787 ft 136 kts 88°
2026-04-20 21:03 48.35720 34.99678 1611 ft 136 kts 88°
2026-04-20 21:04 48.35721 35.01105 1429 ft 136 kts 88°
2026-04-20 21:04 48.35723 35.02523 1229 ft 137 kts 88°
2026-04-20 21:04 48.35725 35.03946 1047 ft 135 kts 88°
2026-04-20 21:04 48.35722 35.05360 848 ft 136 kts 89°
2026-04-20 21:05 48.35725 35.06779 672 ft 138 kts 88°
2026-04-20 21:05 48.35737 35.08196 540 ft 136 kts 88°
2026-04-20 21:05 48.35727 35.09617 508 ft 143 kts 89°
2026-04-20 21:05 48.35725 35.11098 1171 ft 141 kts 88°
2026-04-20 21:06 48.35719 35.12657 1629 ft 158 kts 89°
2026-04-20 21:06 48.35711 35.14424 2121 ft 176 kts 89°
2026-04-20 21:06 48.35711 35.16355 2403 ft 194 kts 89°
2026-04-20 21:06 48.35719 35.18460 2476 ft 204 kts 89°
2026-04-20 21:07 48.35728 35.20597 2480 ft 204 kts 89°
2026-04-20 21:07 48.35741 35.22729 2485 ft 205 kts 89°
2026-04-20 21:07 48.35725 35.24864 2482 ft 205 kts 98°
2026-04-20 21:07 48.35121 35.26781 2485 ft 209 kts 134°
2026-04-20 21:08 48.33855 35.27808 2484 ft 213 kts 169°
2026-04-20 21:08 48.32394 35.27531 2488 ft 216 kts 206°
2026-04-20 21:08 48.31286 35.26027 2488 ft 219 kts 241°
2026-04-20 21:08 48.30873 35.23830 2495 ft 220 kts 264°
2026-04-20 21:09 48.30772 35.21550 2486 ft 221 kts 268°
2026-04-20 21:09 48.30717 35.19240 2488 ft 223 kts 268°
2026-04-20 21:09 48.30670 35.16929 2482 ft 221 kts 268°
2026-04-20 21:09 48.30624 35.14619 2483 ft 222 kts 269°
2026-04-20 21:10 48.30580 35.12273 2481 ft 221 kts 269°
2026-04-20 21:10 48.30540 35.10005 2480 ft 220 kts 269°
2026-04-20 21:10 48.30498 35.07704 2482 ft 219 kts 269°
2026-04-20 21:10 48.30454 35.05407 2480 ft 220 kts 269°
2026-04-20 21:11 48.30410 35.03115 2481 ft 221 kts 269°
2026-04-20 21:11 48.30366 35.00812 2479 ft 219 kts 269°
2026-04-20 21:11 48.30324 34.98516 2477 ft 220 kts 269°
2026-04-20 21:11 48.30281 34.96212 2484 ft 220 kts 269°
2026-04-20 21:12 48.30238 34.93917 2479 ft 221 kts 269°
2026-04-20 21:12 48.30191 34.91600 2485 ft 222 kts 268°
2026-04-20 21:12 48.30170 34.89288 2481 ft 221 kts 275°
2026-04-20 21:12 48.30634 34.87131 2482 ft 218 kts 306°
2026-04-20 21:13 48.31713 34.85576 2484 ft 215 kts 335°
2026-04-20 21:13 48.33126 34.84998 2485 ft 211 kts
2026-04-20 21:13 48.34525 34.85460 2484 ft 205 kts 30°
2026-04-20 21:13 48.35612 34.86806 2480 ft 204 kts 57°
2026-04-20 21:14 48.35964 34.88108 2483 ft 198 kts 84°
2026-04-20 21:14 48.35838 34.90061 2491 ft 185 kts 99°
2026-04-20 21:14 48.35755 34.91988 2491 ft 186 kts 90°
2026-04-20 21:14 48.35732 34.93949 2335 ft 183 kts 90°
2026-04-20 21:15 48.35719 34.95811 2098 ft 178 kts 89°
2026-04-20 21:15 48.35717 34.97652 1856 ft 174 kts 89°
2026-04-20 21:15 48.35718 34.99390 1651 ft 154 kts 89°
2026-04-20 21:15 48.35719 35.00877 1463 ft 136 kts 88°
2026-04-20 21:16 48.35721 35.02285 1281 ft 136 kts 88°
2026-04-20 21:16 48.35722 35.03701 1008 ft 134 kts 88°
2026-04-20 21:16 48.35727 35.05108 824 ft 135 kts 89°
2026-04-20 21:16 48.35728 35.06539 733 ft 134 kts 88°
2026-04-20 21:17 48.35725 35.07934 529 ft 132 kts 88°
2026-04-20 21:17 48.35726 35.09311 475 ft 133 kts 88°
2026-04-20 21:17 48.35662 35.10775 983 ft 140 kts 90°
2026-04-20 21:17 48.35646 35.12280 1772 ft 145 kts 88°
2026-04-20 21:18 48.35651 35.13779 2356 ft 150 kts 88°
2026-04-20 21:18 48.35673 35.15517 2446 ft 182 kts 88°
2026-04-20 21:18 48.35673 35.17547 2473 ft 202 kts 98°
2026-04-20 21:18 48.35070 35.19440 2485 ft 207 kts 135°
2026-04-20 21:19 48.33815 35.20435 2486 ft 210 kts 170°
2026-04-20 21:19 48.32370 35.20118 2487 ft 216 kts 206°
2026-04-20 21:19 48.31288 35.18580 2483 ft 220 kts 242°
2026-04-20 21:20 48.30799 35.14076 2483 ft 221 kts 268°
2026-04-20 21:20 48.30749 35.11741 2484 ft 220 kts 269°
2026-04-20 21:20 48.30709 35.09447 2484 ft 219 kts 269°
2026-04-20 21:20 48.30670 35.07187 2487 ft 218 kts 269°
2026-04-20 21:21 48.30631 35.04917 2486 ft 219 kts 269°
2026-04-20 21:21 48.30591 35.02617 2482 ft 220 kts 269°
2026-04-20 21:21 48.30552 35.00330 2483 ft 218 kts 269°
2026-04-20 21:21 48.30514 34.98043 2486 ft 219 kts 269°
2026-04-20 21:22 48.30476 34.95748 2482 ft 220 kts 268°
2026-04-20 21:22 48.30437 34.93457 2486 ft 220 kts 269°
2026-04-20 21:22 48.30395 34.91151 2487 ft 222 kts 269°
2026-04-20 21:22 48.30355 34.88841 2486 ft 222 kts 268°
2026-04-20 21:23 48.30548 34.86585 2474 ft 218 kts 297°
2026-04-20 21:23 48.31517 34.84904 2477 ft 214 kts 333°
2026-04-20 21:23 48.32911 34.84364 2483 ft 202 kts
2026-04-20 21:23 48.34166 34.84986 2482 ft 185 kts 38°
2026-04-20 21:24 48.35048 34.86255 2516 ft 167 kts 56°
2026-04-20 21:24 48.35551 34.87720 2485 ft 149 kts 74°
2026-04-20 21:24 48.35705 34.89178 2502 ft 133 kts 90°
2026-04-20 21:24 48.35701 34.90609 2498 ft 138 kts 90°
2026-04-20 21:25 48.35705 34.92044 2455 ft 137 kts 89°
2026-04-20 21:25 48.35709 34.93478 2340 ft 137 kts 89°
2026-04-20 21:25 48.35712 34.94901 2190 ft 136 kts 89°
2026-04-20 21:25 48.35714 34.96323 2015 ft 136 kts 89°
2026-04-20 21:26 48.35716 34.97736 1849 ft 135 kts 89°
2026-04-20 21:26 48.35718 34.99141 1679 ft 134 kts 88°
2026-04-20 21:26 48.35720 35.00557 1501 ft 136 kts 88°
2026-04-20 21:26 48.35724 35.01960 1307 ft 135 kts 88°
2026-04-20 21:27 48.35724 35.03370 1139 ft 134 kts 88°
2026-04-20 21:27 48.35722 35.04770 905 ft 134 kts 89°
2026-04-20 21:27 48.35727 35.06179 745 ft 134 kts 88°
2026-04-20 21:27 48.35726 35.07573 612 ft 134 kts 89°
2026-04-20 21:28 48.35727 35.08964 470 ft 131 kts 88°
2026-04-20 21:28 48.35731 35.10079 475 ft 69 kts 92°
2026-04-20 21:28 48.35731 35.10635 470 ft 45 kts 89°
2026-04-20 21:28 48.35731 35.10983 475 ft 29 kts 90°
2026-04-20 21:29 48.35731 35.11266 473 ft 25 kts 88°
2026-04-20 21:29 48.35732 35.11503 476 ft 20 kts 88°
2026-04-20 21:29 48.35731 35.11701 478 ft 18 kts 90°
2026-04-20 21:29 48.35734 35.11872 475 ft 13 kts 75°
2026-04-20 21:30 48.35756 35.11928 478 ft 3 kts 101°
2026-04-20 21:30 48.35735 35.11925 476 ft 6 kts 225°
2026-04-20 21:30 48.35732 35.11806 479 ft 15 kts 270°
2026-04-20 21:30 48.35731 35.11632 477 ft 19 kts 270°
2026-04-20 21:31 48.35732 35.11416 474 ft 23 kts 268°
2026-04-20 21:31 48.35732 35.11151 471 ft 27 kts 270°
2026-04-20 21:31 48.35732 35.10959 472 ft 13 kts 270°
2026-04-20 21:31 48.35737 35.10832 472 ft 8 kts 300°
2026-04-20 21:32 48.35780 35.10816 474 ft 6 kts 357°
2026-04-20 21:32 48.35821 35.10815 470 ft 7 kts 359°
2026-04-20 21:32 48.35877 35.10815 467 ft 10 kts
2026-04-20 21:32 48.35955 35.10815 472 ft 13 kts 359°
2026-04-20 21:33 48.36061 35.10815 476 ft 17 kts
2026-04-20 21:33 48.36183 35.10779 474 ft 20 kts 333°
2026-04-20 21:33 48.36319 35.10679 474 ft 24 kts 333°
2026-04-20 21:33 48.36476 35.10562 475 ft 27 kts 325°
2026-04-20 21:34 48.36579 35.10345 472 ft 26 kts 291°
2026-04-20 21:34 48.36644 35.10113 473 ft 21 kts 290°
2026-04-20 21:34 48.36693 35.09930 472 ft 18 kts 292°
2026-04-20 21:34 48.36730 35.09798 468 ft 9 kts 292°
2026-04-20 21:35 48.36754 35.09706 471 ft 9 kts 289°
2026-04-20 21:35 48.36734 35.09635 471 ft 6 kts 216°
2026-04-20 21:35 48.36716 35.09581 470 ft 5 kts 278°
2026-04-20 21:35 48.36736 35.09538 469 ft 4 kts 334°
2026-04-20 21:36 48.36758 35.09548 470 ft 4 kts 24°
2026-04-20 21:36 48.36786 35.09575 470 ft 2 kts 36°
2026-04-20 21:36 48.36787 35.09576 470 ft 0 kts 36°